2023/07/15 00:00:00, 1.0,26.1
2023/07/15 00:10:00, 1.3,26.2
2023/07/15 00:20:00, 0.6,26.1
2023/07/15 00:30:00, 1.4,25.8
2023/07/15 00:40:00, 1.8,26.1
2023/07/15 00:50:00, 2.6,26.3
2023/07/15 01:00:00, 1.1,26.0
2023/07/15 01:10:00, 1.1,26.0
2023/07/15 01:20:00, 1.0,25.8
2023/07/15 01:30:00, 1.7,25.8
2023/07/15 01:40:00, 1.6,25.8
2023/07/15 01:50:00, 1.6,25.8
2023/07/15 02:00:00, 1.9,25.7
2023/07/15 02:10:00, 1.3,25.7
2023/07/15 02:20:00, 0.8,25.7
2023/07/15 02:30:00, 1.3,25.9
2023/07/15 02:40:00, 1.6,25.8
2023/07/15 02:50:00, 0.9,26.1
2023/07/15 03:00:00, 2.4,26.0
2023/07/15 03:10:00, 1.5,25.6
2023/07/15 03:20:00, 0.4,25.3
2023/07/15 03:30:00, 1.1,25.8
2023/07/15 03:40:00, 1.8,25.7
2023/07/15 03:50:00, 0.8,25.0
2023/07/15 04:00:00, 0.8,25.4
2023/07/15 04:10:00, 1.0,26.0
2023/07/15 04:20:00, 1.7,25.9
2023/07/15 04:30:00, 1.1,25.8
2023/07/15 04:40:00, 0.8,25.3
2023/07/15 04:50:00, 0.9,25.4
2023/07/15 05:00:00, 1.1,25.5
2023/07/15 05:10:00, 1.5,25.7
2023/07/15 05:20:00, 0.9,25.8
2023/07/15 05:30:00, 1.5,26.1
2023/07/15 05:40:00, 1.1,26.3
2023/07/15 05:50:00, 1.8,26.4
2023/07/15 06:00:00, 1.7,26.3
2023/07/15 06:10:00, 1.9,26.3
2023/07/15 06:20:00, 1.9,26.5
2023/07/15 06:30:00, 1.1,26.5
2023/07/15 06:40:00, 1.8,26.3
2023/07/15 06:50:00, 1.4,26.4
2023/07/15 07:00:00, 2.1,26.8
2023/07/15 07:10:00, 2.2,26.9
2023/07/15 07:20:00, 1.1,27.0
2023/07/15 07:30:00, 1.6,27.0
2023/07/15 07:40:00, 1.0,27.4
2023/07/15 07:50:00, 0.4,27.6
2023/07/15 08:00:00, 1.0,27.4
2023/07/15 08:10:00, 0.7,27.6
2023/07/15 08:20:00, 0.2,27.6
2023/07/15 08:30:00, 0.4,28.1
2023/07/15 08:40:00, 0.0,28.2
2023/07/15 08:50:00, 0.4,28.7
2023/07/15 09:00:00, 0.1,29.0
2023/07/15 09:10:00, 0.3,29.2
2023/07/15 09:20:00, 0.4,29.9
2023/07/15 09:30:00, 0.4,30.0
2023/07/15 09:40:00, 0.3,29.9
2023/07/15 09:50:00, 0.3,31.2
2023/07/15 10:00:00, 0.2,32.7
2023/07/15 10:10:00, 0.1,33.9
2023/07/15 10:20:00, 0.0,31.9
2023/07/15 10:30:00, 0.0,32.1
2023/07/15 10:40:00, 0.0,32.0
2023/07/15 10:50:00, 0.0,31.8
2023/07/15 11:00:00, 0.0,33.1
2023/07/15 11:10:00, 0.0,32.0
2023/07/15 11:20:00, 0.0,32.9
2023/07/15 11:30:00, 0.0,33.0
2023/07/15 11:40:00, 0.0,32.3
2023/07/15 11:50:00, 0.0,32.9
2023/07/15 12:00:00, 0.0,32.5
2023/07/15 12:10:00, 0.0,33.4
2023/07/15 12:20:00, 0.0,33.3
2023/07/15 12:30:00, 0.0,33.2
2023/07/15 12:40:00, 0.0,33.4
2023/07/15 12:50:00, 0.0,34.1
2023/07/15 13:00:00, 0.0,35.0
2023/07/15 13:10:00, 0.0,34.8
2023/07/15 13:20:00, 0.0,33.6
2023/07/15 13:30:00, 0.0,34.2
2023/07/15 13:40:00, 0.0,33.0
2023/07/15 13:50:00, 0.0,32.4
2023/07/15 14:00:00, 0.0,32.2
2023/07/15 14:10:00, 0.2,32.5
2023/07/15 14:20:00, 0.0,33.5
2023/07/15 14:30:00, 0.0,34.3
2023/07/15 14:40:00, 0.0,34.8
2023/07/15 14:50:00, 0.0,35.2
2023/07/15 15:00:00, 0.0,34.7
2023/07/15 15:10:00, 0.0,33.6
2023/07/15 15:20:00, 0.0,33.6
2023/07/15 15:30:00, 0.0,32.7
2023/07/15 15:40:00, 0.0,32.9
2023/07/15 15:50:00, 0.0,33.6
2023/07/15 16:00:00, 0.0,33.4
2023/07/15 16:10:00, 0.0,33.6
2023/07/15 16:20:00, 0.0,32.8
2023/07/15 16:30:00, 0.0,31.7
2023/07/15 16:40:00, 0.4,31.8
2023/07/15 16:50:00, 0.3,32.5
2023/07/15 17:00:00, 0.1,33.9
2023/07/15 17:10:00, 0.1,33.2
2023/07/15 17:20:00, 0.1,33.7
2023/07/15 17:30:00, 0.2,34.0
2023/07/15 17:40:00, 0.2,34.1
2023/07/15 17:50:00, 0.3,32.8
2023/07/15 18:00:00, 0.3,31.4
2023/07/15 18:10:00, 0.3,31.8
2023/07/15 18:20:00, 0.2,31.8
2023/07/15 18:30:00, 0.5,30.9
2023/07/15 18:40:00, 0.6,30.0
2023/07/15 18:50:00, 0.8,29.5
2023/07/15 19:00:00, 0.2,29.0
2023/07/15 19:10:00, 0.4,28.8
2023/07/15 19:20:00, 0.4,28.6
2023/07/15 19:30:00, 0.0,28.6
2023/07/15 19:40:00, 0.0,28.4
2023/07/15 19:50:00, 0.4,28.0
2023/07/15 20:00:00, 0.5,28.1
2023/07/15 20:10:00, 0.0,28.2
2023/07/15 20:20:00, 0.0,28.0
2023/07/15 20:30:00, 0.0,27.9
2023/07/15 20:40:00, 0.0,27.6
2023/07/15 20:50:00, 0.0,27.4
2023/07/15 21:00:00, 0.0,27.6
2023/07/15 21:10:00, 0.0,27.9
2023/07/15 21:20:00, 0.0,27.5
2023/07/15 21:30:00, 0.0,27.6
2023/07/15 21:40:00, 0.3,27.2
2023/07/15 21:50:00, 0.0,27.7
2023/07/15 22:00:00, 0.0,27.7
2023/07/15 22:10:00, 0.0,27.7
2023/07/15 22:20:00, 0.0,27.7
2023/07/15 22:30:00, 0.0,27.8
2023/07/15 22:40:00, 0.0,27.6
2023/07/15 22:50:00, 0.0,27.6
2023/07/15 23:00:00, 0.0,27.2
2023/07/15 23:10:00, 0.0,27.4
2023/07/15 23:20:00, 0.0,27.0
2023/07/15 23:30:00, 0.0,26.8
2023/07/15 23:40:00, 0.3,27.2
2023/07/15 23:50:00, 0.0,27.3
